Flag for U.S.A. Weather past 2 weeks in Paterson, New Jersey, U.S.A.

Now
77 °F

Overcast.


Feels Like: 79 °F
Forecast: 67 / 82 °F
Wind: 5 mph from North

Location: Essex County Airport

Current Time: Aug 21, 2014 at 12:22:46 PM

Latest Report: Aug 21, 2014 at 11:53 AM


Visibility: 10 mi

Pressure: 30.06 "Hg

Humidity: 56%

Dew point: 60 °F

Location of PatersonLocation

Historic Weather in Paterson — Graph

°F

Paterson temperature yesterday

Maximum temperature yesterday: 84 °F (at 3:53 PM)
Minimum temperature yesterday: 65 °F (at 1:53 AM)
Average temperature yesterday: 74 °F

Past Weeks' High & Low Weather Summary

 TemperatureHumidityPressure
High88 °F (Aug 10, 3:53 PM)94% (Aug 21, 3:53 AM)30.17 "Hg (Aug 21, 3:53 AM)
Low55 °F (Aug 15, 5:53 AM)29% (Aug 9, 3:53 PM)29.67 "Hg (Aug 13, 4:53 PM)
Average71 °F62%29.98 "Hg
* Reported Aug 6 10:53 AM — Aug 21 10:53 AM, Paterson, Weather by CustomWeather, © 2014

Note: Actual official high and low records may vary slightly from our data, if they occured in-between our weather recording intervals... More about our weather records

Advertising

Paterson weather history for previous 24 hours

 ConditionsComfort  
Time TempWeatherWind HumidityBarometerVisibility
10:53 AM
Aug 21
76 °FSunny.5 mph56%30.07 "Hg10 mi
9:53 AM71 °FPartly sunny.No wind78%30.09 "Hg10 mi
8:53 AM69 °FOvercast.No wind81%30.09 "Hg10 mi
7:53 AM67 °FLow clouds.No wind87%30.08 "Hg7 mi
6:53 AM66 °FOvercast.No wind87%30.06 "Hg10 mi
5:53 AM65 °FOvercast.3 mph91%30.05 "Hg9 mi
4:53 AM65 °FMostly cloudy.3 mph87%30.04 "Hg10 mi
3:53 AM64 °FLight rain. Fog.No wind94%30.04 "Hg5 mi
2:53 AM67 °FLight rain. Overcast.No wind85%30.06 "Hg6 mi
1:53 AM70 °FOvercast.3 mph71%30.06 "Hg10 mi
12:53 AM70 °FMostly cloudy.No wind68%30.06 "Hg10 mi
11:53 PM
Aug 20
71 °FPassing clouds.No wind63%30.06 "Hg10 mi
10:53 PM72 °FClear.No wind59%30.04 "Hg10 mi
9:53 PM72 °FClear.No wind55%30.03 "Hg10 mi
8:53 PM74 °FClear.No wind48%30.02 "Hg10 mi
7:53 PM76 °FSunny.No wind45%30.02 "Hg10 mi
6:53 PM78 °FSunny.6 mph45%30.00 "Hg10 mi
5:53 PM81 °FSunny.10 mph44%30.00 "Hg10 mi
4:53 PM83 °FPassing clouds.10 mph43%29.99 "Hg10 mi
3:53 PM84 °FPartly sunny.12 mph46%29.98 "Hg10 mi
2:53 PM82 °FOvercast.No wind46%29.98 "Hg10 mi
1:53 PM82 °FScattered clouds.No wind49%29.99 "Hg10 mi
12:53 PM80 °FScattered clouds.6 mph52%30.01 "Hg10 mi
Weather by CustomWeather, © 2014

See weather overviewHow to use our weather pages